SCP
0 0 0 0 0 0 0 1 2 2 2 3 3 3 2 2 2 1 1 2 2 1 1 1 1 1 1 1 1 1 1 1 1 1 1 1 1 0 0 0 0 0 0 0 0 0 0 0 0
0 0 0 0 0 0 1 2 2 3 3 4 3 3 2 2 2 2 2 2 2 2 1 1 1 1 1 1 1 1 1 1 1 1 1 1 1 1 0 0 0 1 1 1 1 1 1 1 1
0 0 0 0 0 1 1 2 3 4 4 4 3 3 2 2 2 3 3 3 2 2 1 1 1 1 1 1 1 1 1 1 1 1 1 1 1 1 1 0 0 1 1 1 1 1 1 1 1
0 0 0 0 0 1 2 3 3 4 4 4 3 3 3 2 2 3 3 3 2 2 2 2 2 1 1 1 1 1 1 1 1 1 1 1 1 1 1 1 0 0 1 1 1 1 1 1 1
0 0 0 0 0 1 1 2 3 3 3 3 3 4 4 3 2 3 3 3 2 2 2 2 2 2 1 1 1 1 1 1 1 1 1 1 1 1 1 1 1 1 1 1 1 1 1 1 1
0 0 0 0 1 1 2 2 3 3 3 3 4 5 4 3 3 3 2 2 2 2 3 3 3 2 2 2 1 1 1 1 1 1 1 1 1 1 1 1 1 1 1 1 1 1 1 1 1
0 0 0 0 1 2 2 3 3 3 3 3 5 6 5 4 4 4 3 3 3 3 3 3 3 2 2 2 2 2 1 1 1 1 1 1 1 1 1 1 1 1 1 1 1 1 1 1 1
0 0 0 0 1 2 3 4 4 4 4 4 6 7 6 4 4 4 4 4 4 4 4 3 2 2 2 2 2 2 1 1 1 1 1 1 1 1 1 1 1 1 1 1 1 1 1 1 1
0 0 0 0 1 2 4 4 5 6 6 6 7 8 7 5 4 3 3 4 4 5 4 3 2 2 2 2 2 2 2 1 1 1 1 1 1 1 1 1 2 2 2 1 1 1 1 1 1
0 0 0 1 1 3 4 5 5 5 6 6 7 8 7 5 4 3 3 4 5 4 4 3 2 2 2 2 3 2 2 2 2 2 2 2 2 1 1 2 2 2 2 2 2 1 1 1 1
0 0 1 1 2 3 4 4 5 5 4 5 6 7 6 4 3 3 4 4 5 5 4 4 4 4 3 3 3 3 3 2 2 2 3 3 3 2 2 2 2 3 2 2 2 2 2 1 1
0 0 1 2 3 3 4 4 4 4 5 5 5 6 5 4 4 4 5 6 7 7 6 6 6 6 5 4 4 4 3 3 3 3 4 4 4 3 3 3 3 3 3 3 3 3 2 2 2
1 1 1 2 3 3 3 3 4 4 5 6 6 6 5 4 5 6 6 8 9 9 9 8 8 8 7 6 4 4 4 4 4 4 5 4 4 3 3 3 3 3 3 3 3 3 2 2 2
1 1 1 2 2 2 3 3 3 4 5 5 5 5 5 5 6 8 9 9 10 12 12 10 9 8 7 6 5 4 4 5 5 5 5 4 4 4 4 4 4 3 3 3 3 2 2 2 2
1 1 1 1 2 2 2 2 3 3 4 4 5 4 5 6 8 10 10 10 13 15 14 12 10 9 8 6 5 4 4 5 5 5 5 4 4 4 4 4 3 3 3 3 3 3 2 2 2
0 0 1 1 2 2 2 2 3 4 4 4 4 4 5 7 9 10 11 13 17 17 16 14 12 11 9 7 5 5 5 5 5 5 5 4 4 4 4 3 3 3 3 3 3 3 3 2 2
0 0 1 1 1 1 1 2 4 4 4 4 4 4 6 9 10 10 11 15 18 17 16 15 14 12 10 8 6 5 5 5 6 6 5 4 4 5 5 4 3 2 2 2 3 3 3 2 2
0 0 1 1 1 1 1 3 5 5 4 4 4 5 8 10 10 9 10 13 15 15 15 14 13 12 10 8 6 6 6 7 7 6 5 4 4 5 5 3 2 2 2 2 2 2 2 2 2
0 0 1 1 1 1 1 3 5 5 5 5 4 5 8 10 9 8 9 10 11 12 11 10 10 11 10 9 8 7 7 7 6 6 6 5 5 5 4 3 2 2 2 2 2 2 2 2 2
0 0 1 1 1 1 1 2 3 5 5 5 5 5 6 8 8 8 8 9 10 10 9 8 8 9 9 9 8 8 7 6 6 5 6 6 5 4 3 2 2 1 2 2 2 1 2 2 2
0 0 1 1 1 1 1 1 2 4 5 5 5 5 5 6 8 8 7 8 8 9 8 8 8 8 8 7 7 7 7 6 5 4 5 6 5 3 2 2 1 1 1 1 1 1 1 1 1
0 0 1 1 0 1 1 1 1 3 4 5 5 5 5 6 8 9 8 7 8 8 8 8 8 7 6 6 6 6 6 5 4 4 5 5 4 2 1 1 1 1 1 1 1 1 1 1 1
0 0 0 0 0 0 0 1 1 2 3 4 6 8 7 7 9 9 8 8 8 8 7 7 7 7 6 5 5 5 4 4 4 4 4 4 2 1 1 1 1 1 1 1 1 1 1 1 1
0 0 0 0 0 0 0 0 1 2 3 5 7 10 9 8 10 10 9 9 8 7 6 6 7 7 6 5 5 4 4 4 4 3 3 2 1 1 1 1 1 1 1 1 1 1 1 1 1
0 0 0 0 0 0 0 1 2 4 5 6 8 9 9 10 11 10 9 9 7 6 5 5 7 7 6 5 5 4 4 3 3 2 2 1 1 1 1 1 1 1 2 2 2 2 2 2 2
0 0 0 0 0 0 1 1 3 6 7 7 7 7 8 10 10 9 9 8 7 6 5 5 6 7 7 5 5 4 3 2 2 2 2 1 1 1 1 1 2 2 2 2 2 2 2 2 2
0 0 0 0 0 0 0 1 3 5 7 7 7 6 7 9 8 8 8 8 7 7 6 5 5 6 6 4 3 3 3 2 2 2 2 1 1 2 2 2 2 2 2 2 2 2 2 2 2
0 0 0 0 0 0 0 1 3 4 6 7 7 6 6 7 7 7 7 8 8 8 8 7 5 4 4 3 3 3 2 2 2 2 2 2 2 3 3 3 3 2 2 2 2 2 2 2 3
0 0 0 0 0 0 0 1 3 5 6 6 6 6 6 6 6 6 6 7 8 9 10 9 6 4 3 3 3 3 3 3 3 3 2 3 3 3 3 3 2 2 2 2 1 1 2 2 2
0 0 0 1 1 1 0 1 4 6 6 5 5 5 6 6 6 6 6 7 9 11 11 11 7 4 3 3 3 3 3 3 3 3 3 3 4 4 3 3 2 2 1 1 1 1 1 1 1
Wind_Speed
9 12 11 9 8 9 12 9 4 7 8 10 10 11 14 15 11 11 9 16 20 18 15 15 13 13 12 12 11 11 10 10 9 8 7 6 6 5 5 4 4 4 4 4 4 4 3 4 4
10 14 10 8 9 11 9 7 5 9 11 10 10 12 14 13 13 12 12 17 19 17 14 14 14 13 12 12 11 11 10 10 9 8 7 6 5 4 4 3 3 3 2 2 3 3 3 3 2
12 17 9 8 13 13 7 1 8 12 11 9 9 11 10 9 10 10 14 17 17 15 14 15 14 13 12 12 11 10 10 9 8 7 6 5 4 3 3 2 2 2 2 2 2 2 2 2 2
9 9 8 10 16 13 8 1 6 11 10 9 10 11 10 7 8 13 15 17 16 15 15 14 14 13 12 11 10 9 9 8 7 6 5 5 4 3 2 1 1 1 1 1 1 1 2 2 2
10 8 12 14 15 10 5 5 4 7 8 8 10 11 10 8 14 16 14 15 15 15 15 14 14 13 11 10 9 8 8 7 6 5 5 4 3 2 1 0 0 1 1 2 2 2 2 3 4
9 9 12 14 14 9 5 6 5 6 8 9 12 12 8 9 13 13 14 13 14 15 15 14 13 13 11 10 9 8 7 7 6 5 4 3 2 2 1 1 1 1 2 2 3 3 4 4 5
11 11 14 16 13 7 5 5 5 6 6 6 9 11 9 10 11 13 13 12 14 15 15 12 12 11 11 10 9 8 7 6 5 4 3 3 3 3 3 2 1 1 2 3 4 4 5 5 6
12 12 17 16 13 6 4 4 4 5 5 7 6 9 11 13 12 12 12 11 13 13 13 11 11 10 9 9 9 9 7 6 5 4 4 4 5 6 6 5 4 4 4 5 5 6 6 7 8
15 14 15 15 11 5 4 5 5 5 8 7 5 10 15 16 15 12 11 10 10 11 10 10 11 9 8 8 9 8 7 6 5 4 5 5 4 5 5 6 6 6 6 6 7 8 8 9 9
12 12 14 11 8 4 4 5 7 7 9 9 10 15 18 15 14 13 12 11 10 11 9 8 9 8 7 6 7 5 5 5 4 3 3 3 3 3 2 4 6 7 8 8 9 10 9 8 5
15 15 11 8 5 2 2 3 4 6 6 8 10 17 17 16 14 12 12 11 10 10 8 8 8 6 5 4 5 2 2 3 3 2 2 2 2 2 0 1 2 4 6 4 4 6 4 4 2
15 11 9 6 1 2 0 2 2 4 6 11 10 12 16 15 13 12 11 11 10 9 8 7 7 6 4 4 3 2 1 1 1 1 0 1 1 1 1 1 0 1 1 1 2 2 2 3 3
13 9 6 4 2 3 3 3 3 6 10 14 13 11 12 13 11 10 10 10 10 9 8 7 6 5 4 4 1 2 2 1 2 1 1 2 1 2 2 2 2 2 2 1 2 3 3 3 3
7 6 6 5 5 3 4 4 3 6 11 14 14 11 11 11 11 11 11 10 10 8 7 7 6 5 4 3 2 2 1 1 2 2 2 2 2 2 3 2 2 2 2 2 2 3 3 3 2
7 7 8 8 8 7 7 6 6 8 11 12 12 11 11 10 10 9 10 10 9 9 7 6 6 5 4 3 1 2 1 2 2 2 3 3 4 3 3 3 2 3 3 2 2 3 2 3 3
10 11 10 10 10 10 10 8 7 8 11 11 10 11 11 10 10 9 10 9 9 8 7 5 5 6 4 3 2 2 2 2 2 3 3 3 4 4 3 3 3 3 3 2 2 1 2 3 3
11 12 11 10 12 11 10 9 8 8 10 10 10 10 11 10 10 9 10 9 8 7 6 5 4 5 4 3 2 2 2 3 2 3 3 3 3 3 2 2 2 4 3 2 3 2 2 3 3
9 10 10 10 10 11 9 6 8 7 9 8 9 9 9 9 9 9 9 9 8 7 6 6 5 4 3 3 2 1 2 2 2 3 2 3 2 3 3 2 2 3 2 2 2 3 3 2 2
10 8 8 9 7 8 8 6 7 9 9 10 9 9 10 9 8 9 9 9 8 7 6 5 4 4 3 2 1 1 1 1 2 2 3 2 2 3 2 3 2 3 2 2 3 3 4 3 1
11 8 9 9 6 6 5 7 8 10 12 11 10 8 7 9 9 9 9 9 8 7 6 5 4 3 2 2 1 1 1 1 2 2 2 2 2 3 3 3 3 3 2 2 3 3 3 3 2
12 10 8 6 3 6 7 7 9 10 10 9 9 9 9 8 9 10 10 9 8 7 6 5 4 3 2 2 2 1 1 1 1 1 1 1 1 2 2 3 3 3 3 2 3 3 3 3 3
9 8 8 8 6 7 11 8 9 10 9 10 9 9 9 8 8 9 10 9 8 7 6 5 4 3 3 2 2 1 1 1 1 1 1 1 1 2 2 3 3 3 3 3 3 3 3 3 3
9 7 9 9 9 10 10 8 5 6 8 9 8 8 9 9 9 9 10 10 9 8 7 5 4 3 3 2 2 1 1 1 1 1 1 0 1 1 2 2 3 3 2 3 3 3 3 3 3
8 8 9 10 10 12 9 8 6 6 9 9 9 9 10 9 9 9 10 10 8 8 7 6 5 4 4 3 2 1 1 1 1 1 1 0 0 1 2 3 3 3 3 3 3 3 3 3 3
10 8 6 7 8 9 8 8 4 3 6 8 10 11 11 10 10 10 11 10 9 8 7 7 6 5 4 3 2 1 1 1 1 0 1 1 1 1 3 3 3 3 3 3 3 3 3 3 4
8 8 7 7 8 9 8 7 2 4 4 6 8 10 11 12 10 11 11 10 9 8 7 7 6 5 4 3 2 2 1 0 1 1 1 1 1 1 2 2 3 3 4 4 3 3 3 3 4
8 8 8 8 10 9 7 4 1 5 7 8 8 9 9 10 10 11 11 10 9 8 7 6 6 5 4 4 3 3 2 1 0 1 1 1 1 2 2 2 3 3 3 4 4 2 3 3 3
10 8 5 7 8 9 8 5 2 5 6 7 7 7 8 10 10 10 9 9 8 8 7 6 5 4 5 4 3 3 2 1 1 1 1 1 2 2 2 3 3 3 3 3 4 3 3 3 3
9 9 7 6 7 8 7 4 3 1 3 6 5 6 8 9 10 9 9 9 8 7 7 6 5 4 3 3 2 2 2 1 1 0 1 1 2 2 2 3 3 3 3 3 3 4 3 4 4
10 10 8 7 8 7 7 5 2 2 4 6 5 6 8 9 8 8 8 9 8 7 7 6 5 5 4 3 3 2 2 1 1 1 1 1 2 2 2 3 3 3 2 3 3 4 4 3 4
Wind_Direction
264 256 247 251 244 241 248 246 176 123 95 78 72 74 72 58 68 96 118 109 109 114 121 120 118 120 121 122 122 125 125 123 123 122 119 114 108 102 97 90 83 77 72 65 63 59 53 50 47
265 257 243 246 250 246 241 229 132 98 97 94 86 80 78 73 81 107 113 108 111 119 127 121 122 122 121 121 122 124 126 125 125 124 124 122 118 113 106 97 88 76 64 55 52 48 43 38 32
262 259 250 242 244 252 253 206 122 114 114 109 91 72 66 81 96 108 115 116 114 118 118 120 126 124 124 124 124 125 125 126 128 128 127 124 120 116 114 107 96 75 51 36 32 27 19 11 358
249 233 238 247 248 243 241 206 122 123 116 110 107 89 79 68 103 118 122 120 121 124 122 124 126 126 126 127 128 129 130 130 131 130 127 125 121 117 110 105 96 66 13 348 347 347 331 322 316
240 244 236 249 250 241 202 152 162 132 126 119 106 98 92 88 109 120 127 125 128 125 123 127 128 128 129 131 131 131 130 131 132 131 129 129 132 134 139 151 324 317 312 306 307 302 293 293 293
232 236 242 247 246 231 194 169 147 127 118 125 114 108 101 118 121 128 127 129 126 124 124 127 130 131 132 133 133 132 129 129 130 133 138 146 154 171 197 219 265 286 290 287 287 284 280 282 283
244 251 253 253 249 225 194 167 151 142 140 129 119 113 128 132 129 131 132 132 126 124 126 135 138 137 135 134 135 134 136 137 141 147 161 183 202 213 217 217 234 261 276 276 275 275 273 274 274
245 266 267 262 256 236 188 152 130 128 119 108 114 130 143 142 141 136 134 131 124 126 131 138 142 143 146 145 146 147 149 152 160 174 197 218 230 227 224 214 213 233 250 260 264 265 267 267 266
242 256 263 261 254 228 169 152 130 124 106 90 86 109 131 142 142 137 131 124 122 124 126 137 140 146 153 153 152 157 162 170 179 196 220 236 239 230 221 225 206 222 238 249 255 257 260 263 259
232 246 256 264 267 230 174 171 158 153 128 105 97 108 130 145 144 144 142 135 130 126 130 133 133 142 153 150 144 168 173 168 193 204 209 228 252 261 258 187 211 227 239 248 250 256 262 257 256
231 245 268 284 305 7 131 159 163 163 136 125 130 133 139 145 146 147 145 139 132 129 130 129 128 129 137 128 141 160 169 161 189 208 223 227 259 279 277 189 201 235 247 255 259 251 255 255 254
236 243 266 283 345 76 99 125 66 77 114 125 130 137 142 148 151 151 147 141 132 132 132 124 123 125 114 110 128 146 153 154 150 138 297 291 291 315 339 319 295 254 262 270 292 272 271 283 283
237 241 249 263 261 184 167 157 115 109 117 124 132 146 150 150 149 145 139 132 132 133 130 121 116 110 101 94 96 105 83 86 92 79 45 339 351 344 343 337 336 332 333 320 298 298 306 308 309
247 248 246 235 226 192 180 189 172 139 138 136 141 153 153 147 150 143 137 134 134 130 125 123 118 110 103 98 96 88 89 82 77 67 46 356 9 9 343 340 340 339 320 320 303 308 300 293 293
245 243 235 223 211 206 194 209 195 165 148 146 149 153 148 149 151 142 138 136 133 131 130 130 130 119 112 106 102 101 80 74 72 67 48 18 13 7 346 343 343 334 323 316 307 306 305 301 299
229 230 231 220 212 209 208 216 189 170 154 153 155 157 151 152 144 137 138 135 132 135 131 127 131 124 119 107 77 61 54 61 62 64 55 38 19 2 346 345 336 320 312 312 315 331 324 316 309
225 228 232 225 207 206 214 206 175 167 159 159 167 160 150 145 139 137 137 131 130 127 125 123 111 118 123 118 110 88 73 61 58 57 50 34 12 355 346 332 326 318 318 330 327 349 328 311 308
244 236 234 229 202 204 209 192 158 179 168 171 177 160 150 150 143 140 134 131 128 125 124 127 126 122 127 126 127 103 91 80 71 65 48 30 3 357 344 327 337 326 328 329 331 327 312 296 293
267 266 263 254 214 215 203 174 173 179 185 189 178 163 158 153 147 140 136 133 130 126 129 133 131 131 131 134 146 142 113 99 86 82 56 36 3 354 344 345 343 334 334 328 332 325 312 308 308
266 255 257 258 219 218 203 187 198 192 194 192 180 173 170 153 149 150 145 141 139 138 139 134 135 132 136 130 124 123 102 102 93 69 59 26 2 353 351 355 346 339 332 343 337 325 310 307 324
260 257 247 260 273 249 229 212 209 201 193 179 176 169 169 167 159 157 153 152 150 147 143 138 133 128 117 104 104 91 94 104 110 117 85 360 3 6 351 354 351 345 348 345 328 333 323 313 310
263 265 258 252 243 243 236 243 211 194 188 190 182 174 164 166 166 163 157 158 157 153 143 133 132 126 119 126 117 118 131 109 86 97 98 22 19 12 354 359 353 349 349 348 333 356 321 309 307
271 267 270 261 258 260 248 259 242 191 206 193 177 173 169 174 169 169 165 160 156 150 141 137 137 137 132 118 106 112 84 71 73 67 70 139 14 4 351 355 356 348 352 351 346 339 331 322 314
265 259 261 263 258 257 256 263 263 202 205 190 174 178 175 173 169 168 158 151 151 149 146 144 152 149 139 134 128 126 105 80 72 47 19 329 35 19 2 355 353 348 351 342 338 332 325 323 316
257 257 257 261 261 261 256 253 241 192 188 181 167 170 169 165 166 162 154 153 149 152 152 152 154 151 148 143 149 152 133 127 128 351 26 351 7 33 13 357 345 343 339 333 337 330 319 319 313
251 253 262 276 278 281 281 269 206 139 139 137 145 153 160 160 162 157 154 149 149 151 151 153 155 153 152 149 151 149 156 127 85 12 354 356 5 11 358 351 347 344 339 338 333 326 318 322 315
249 249 260 277 282 280 276 269 191 133 137 136 142 142 148 151 151 150 147 144 147 149 149 152 157 159 157 156 162 163 161 134 83 28 7 4 356 346 5 354 346 334 331 328 325 319 320 317 315
261 262 267 266 282 282 277 272 256 172 162 148 140 139 141 139 138 138 141 145 144 147 148 146 149 162 164 162 175 160 150 151 125 38 27 19 14 1 339 339 331 323 331 335 329 315 324 326 318
265 259 261 269 274 288 292 298 320 289 145 137 141 144 146 141 140 144 144 143 143 148 149 148 148 148 158 157 158 128 140 133 107 73 24 28 10 332 318 323 322 325 338 333 324 319 323 329 330
270 271 269 268 276 282 286 281 263 99 114 128 132 123 126 129 136 142 142 145 149 151 153 153 156 161 168 160 149 142 129 107 92 45 29 10 339 310 311 317 313 320 342 340 333 333 335 334 328